Wetbulb
47.89 42.69 40.09 43.51 44.63 45.39 44.41 43.59 50.50 58.00 60.73 59.41 57.58 56.89 60.07 62.41 63.05 62.74 63.03 63.65 64.00 64.85 67.41 68.66 69.03 70.46 69.51 69.02 68.55 68.95 68.84 69.01 69.73 68.70 67.19 67.17 66.95 68.54 69.96 70.56 71.68 72.20 72.57 71.34
44.27 40.31 45.74 47.64 47.22 46.01 44.64 43.69 52.31 57.65 59.35 58.84 57.44 57.34 59.64 61.51 61.61 62.63 62.33 63.25 63.22 64.88 66.07 67.31 68.15 69.26 68.03 67.95 68.82 68.39 69.02 69.26 69.67 70.33 70.32 69.82 69.35 70.23 69.89 70.26 71.80 71.98 72.53 70.88
42.21 45.55 49.40 47.62 45.43 45.01 41.66 43.50 47.50 54.85 58.39 59.41 57.63 55.33 57.44 60.68 62.33 62.65 63.06 64.57 64.53 63.70 64.06 65.94 67.07 67.80 67.12 67.10 68.21 68.38 69.18 69.18 69.66 71.39 70.57 69.74 70.48 70.50 70.07 69.68 70.74 71.50 72.57 71.57
43.94 48.63 48.31 45.48 44.94 45.06 37.14 46.40 49.45 56.05 52.44 48.50 56.22 46.65 54.77 57.35 58.84 60.40 61.72 62.61 63.18 63.02 64.17 65.95 66.51 66.57 66.26 67.63 69.17 69.32 69.46 68.29 69.87 70.87 69.42 68.54 68.56 67.31 69.04 69.40 70.46 71.30 72.14 72.40
42.75 44.12 44.37 44.32 45.70 46.66 43.73 51.58 48.83 54.88 50.21 49.15 51.08 48.23 47.40 56.82 56.39 58.67 60.06 61.35 64.06 63.08 63.98 65.42 66.29 66.99 67.05 69.09 69.19 70.02 69.36 69.55 70.27 69.99 69.29 68.27 68.33 68.23 69.51 70.00 70.31 70.59 71.30 71.91
45.84 49.46 47.58 46.09 47.78 47.79 57.77 54.65 52.42 50.64 48.45 42.89 48.47 49.35 48.24 53.51 55.97 58.30 60.91 62.84 64.43 64.26 64.55 64.03 66.93 67.91 67.01 69.49 69.82 70.20 69.18 69.65 70.86 70.90 69.01 68.27 67.88 67.82 67.85 68.86 69.87 69.96 70.52 71.20
44.59 46.05 48.10 48.49 43.12 47.44 54.05 45.64 40.42 41.10 40.27 40.23 46.24 49.00 49.82 55.26 58.49 60.29 60.82 62.31 64.31 64.49 63.89 66.68 64.70 66.85 66.71 68.51 69.36 69.75 68.39 68.15 70.03 70.52 69.73 68.56 67.10 67.59 68.09 69.02 69.67 69.44 69.46 70.18
37.53 38.15 44.86 47.56 45.13 42.78 49.60 45.30 40.07 35.36 37.56 39.76 47.99 45.05 50.76 57.36 59.62 60.67 62.89 63.44 64.52 64.59 65.65 66.08 65.97 66.18 67.12 68.21 69.73 69.46 68.36 67.95 69.72 69.99 70.59 69.33 67.36 66.50 68.74 69.36 69.80 70.09 70.03 70.59
36.88 39.78 48.36 48.40 48.48 48.04 44.29 43.02 45.91 40.56 39.13 41.57 46.17 52.97 56.85 58.34 58.60 59.88 61.07 62.24 63.09 65.05 66.07 66.17 67.75 67.71 66.93 67.22 69.29 70.10 69.26 68.80 69.91 70.04 70.35 69.05 67.65 69.14 69.07 69.39 69.77 70.43 70.55 70.69
41.15 37.78 43.17 48.35 49.48 48.58 46.26 47.80 40.60 38.79 34.62 35.20 43.48 46.86 50.20 53.78 55.65 58.19 58.45 60.28 61.36 63.50 66.66 66.79 67.81 68.58 68.39 67.46 68.80 71.21 70.45 69.13 68.61 69.96 70.03 70.56 69.76 69.51 67.67 68.28 69.04 70.50 70.24 70.15
41.23 39.01 42.12 45.39 42.62 41.49 44.44 41.68 40.27 40.42 37.91 36.91 38.39 44.04 55.21 55.51 55.91 56.74 58.63 60.28 61.60 63.18 64.75 65.94 67.30 68.36 67.89 67.98 68.00 68.07 66.86 66.68 66.50 67.98 68.25 68.47 69.71 70.94 69.92 68.75 69.08 69.73 69.95 70.04
41.17 37.56 36.31 40.86 46.18 46.16 43.39 41.33 40.57 38.14 37.01 42.45 41.55 46.79 56.56 57.41 57.14 57.26 57.98 60.58 62.12 63.17 63.39 65.15 65.88 67.05 66.87 67.17 66.74 65.82 65.76 65.79 66.92 67.67 67.91 68.45 68.70 69.44 70.53 71.06 72.07 71.56 70.18 70.06
40.61 35.82 34.22 38.47 41.89 43.60 41.10 41.61 38.56 38.27 41.07 40.94 40.51 46.52 56.20 56.35 56.58 57.57 57.18 60.46 60.97 61.34 61.74 62.44 64.43 65.45 65.77 66.10 65.61 66.13 67.44 67.76 67.64 68.59 68.07 67.39 67.78 69.20 70.68 71.33 71.97 71.42 70.44 69.80
47.04 35.45 36.55 33.62 35.93 39.15 39.20 42.42 40.73 38.43 40.48 42.63 45.91 50.11 52.61 53.10 53.55 55.84 58.32 59.61 59.74 59.47 60.15 60.86 61.89 63.52 65.06 65.38 64.51 65.63 67.07 68.27 67.51 67.60 67.62 67.44 67.64 68.88 68.93 70.01 70.39 71.06 70.71 69.77
41.43 36.14 36.91 41.53 42.44 42.02 41.62 42.15 42.38 39.26 41.52 41.62 47.85 49.57 52.09 53.35 54.07 56.22 58.09 58.95 58.77 58.27 58.11 59.08 59.68 60.84 62.59 63.31 64.28 65.04 65.79 66.24 67.14 66.26 67.04 67.08 67.17 67.91 67.55 67.60 67.60 68.84 70.08 71.11
39.45 35.93 38.15 38.70 45.23 42.73 40.09 42.29 43.49 49.12 50.53 49.27 50.69 49.56 54.90 55.12 55.34 56.34 57.33 58.10 58.12 58.14 58.46 58.75 59.26 59.38 59.70 61.44 62.50 62.89 63.08 63.96 65.21 64.77 64.72 65.66 64.55 66.79 66.94 66.96 66.96 67.08 67.87 68.63
39.78 36.65 35.19 32.43 42.63 41.81 36.70 40.24 40.61 48.50 50.72 50.95 47.49 51.24 54.59 53.50 53.64 54.40 55.92 56.90 57.06 56.67 56.65 54.43 54.62 56.20 59.71 60.41 61.41 61.23 61.26 61.50 60.48 59.98 60.48 61.67 62.80 62.93 64.76 65.55 65.57 65.90 66.33 67.60
38.26 36.20 34.15 32.32 37.86 32.10 41.89 45.84 46.89 50.23 51.50 51.23 51.31 53.20 54.66 53.88 54.47 54.12 56.03 56.00 54.87 54.57 53.16 52.96 54.12 55.21 57.63 59.93 58.83 59.02 58.40 57.17 56.40 55.74 56.04 56.80 58.20 60.42 62.52 62.81 62.36 63.13 64.45 64.42
38.35 35.48 32.21 30.78 31.29 38.62 43.72 45.00 43.43 43.23 47.99 53.21 52.58 53.74 54.10 55.31 55.37 53.48 55.26 54.05 53.03 51.46 50.83 50.94 52.19 54.59 55.31 55.54 55.54 54.87 54.63 54.82 54.88 54.75 54.17 54.54 55.38 56.24 57.22 58.43 61.68 62.70 63.01 63.41
36.90 35.41 34.09 31.02 29.49 30.78 39.75 46.99 49.19 48.19 40.58 52.40 54.71 53.35 52.83 52.82 46.75 47.38 51.17 52.37 51.96 51.74 51.19 50.53 52.04 52.92 52.41 51.59 52.89 52.36 52.14 52.24 52.09 52.83 52.71 53.16 54.61 54.95 55.41 55.39 57.03 59.63 61.38 62.52
30.99 31.25 29.77 29.46 29.82 37.02 45.39 48.58 50.35 38.40 38.34 53.74 55.06 54.12 52.64 50.01 48.38 48.05 50.22 50.77 50.96 50.65 50.00 49.79 50.28 50.17 49.96 50.49 50.23 48.71 48.92 48.45 50.14 50.65 51.10 51.12 51.02 51.83 52.37 52.60 53.52 54.76 55.75 57.71
32.67 29.18 28.26 28.90 28.40 29.97 46.89 47.97 42.35 45.11 46.10 51.31 53.72 53.35 49.85 49.29 49.14 47.41 47.90 48.70 48.83 48.40 49.24 49.74 48.99 48.86 48.94 48.61 48.73 46.92 46.88 48.07 49.09 49.79 49.53 49.57 49.65 51.06 51.35 50.28 51.21 51.98 52.68 53.62
32.55 36.20 35.44 34.73 34.83 42.54 44.76 46.02 48.66 49.78 48.55 50.27 49.74 50.43 50.24 49.80 48.90 47.85 46.99 47.10 47.06 47.34 47.84 48.88 48.10 46.58 46.49 47.36 47.26 45.94 46.09 47.27 47.21 47.60 47.93 48.39 49.14 49.69 49.86 48.94 48.92 49.17 49.40 50.48
39.14 39.59 38.35 38.55 41.58 43.29 44.67 46.45 48.84 48.82 48.36 50.24 50.62 50.51 51.01 49.53 49.85 49.59 48.90 48.05 47.54 47.40 46.98 46.99 46.44 45.10 44.57 45.95 46.14 45.75 46.31 46.70 46.26 45.13 45.43 46.83 46.50 47.31 48.05 48.65 48.86 48.12 48.04 47.90
40.60 40.52 36.79 37.14 40.60 42.31 44.82 45.52 47.35 49.25 49.41 49.95 50.29 50.68 50.60 50.52 49.25 48.95 48.37 47.88 47.28 47.44 47.35 46.74 45.56 44.18 44.13 44.77 44.59 44.48 44.47 45.05 43.97 43.72 44.15 44.07 45.09 45.26 45.75 46.49 46.95 47.28 46.67 46.07
39.51 38.97 36.71 36.73 41.48 40.05 41.69 44.99 47.24 48.48 48.44 48.87 48.69 47.24 48.34 49.24 46.92 47.64 47.60 48.13 47.23 47.47 47.51 45.02 44.10 43.66 43.84 44.24 43.72 43.71 44.04 43.84 42.08 41.68 42.11 42.45 42.96 43.71 44.34 44.24 44.39 46.53 46.29 45.42
MSLP
1008.84 1009.56 1009.76 1010.12 1010.18 1010.27 1010.33 1010.57 1010.54 1010.78 1010.79 1011.62 1012.32 1013.22 1013.15 1013.24 1013.53 1014.00 1013.98 1013.80 1013.92 1014.17 1014.58 1015.21 1015.76 1016.49 1016.84 1017.29 1017.82 1018.13 1018.58 1019.00 1019.26 1019.73 1020.07 1020.24 1020.30 1020.38 1020.47 1020.47 1020.46 1020.57 1020.60 1020.87
1009.11 1009.29 1009.12 1009.41 1009.78 1010.08 1010.17 1010.36 1010.92 1011.40 1011.53 1011.99 1013.12 1013.64 1013.94 1014.00 1014.09 1013.86 1014.04 1014.33 1014.24 1014.46 1014.82 1015.27 1015.88 1016.24 1016.80 1017.07 1017.54 1018.06 1018.45 1018.58 1018.93 1019.30 1019.64 1019.76 1019.98 1020.21 1020.34 1020.38 1020.49 1020.64 1020.55 1020.71
1008.96 1008.71 1008.57 1009.03 1009.38 1009.72 1009.84 1010.04 1010.51 1011.28 1012.07 1012.46 1013.26 1014.33 1014.17 1013.97 1014.24 1014.69 1014.74 1014.91 1014.69 1014.58 1014.97 1015.39 1015.81 1015.98 1016.54 1016.99 1017.22 1017.69 1018.16 1018.32 1018.64 1019.10 1019.47 1019.86 1020.04 1020.30 1020.56 1020.58 1020.66 1020.64 1020.59 1020.63
1008.62 1008.17 1008.31 1008.64 1009.02 1009.29 1009.47 1009.02 1009.72 1011.05 1012.05 1012.91 1013.28 1014.34 1014.45 1014.32 1014.43 1014.52 1014.73 1014.98 1015.03 1014.96 1015.27 1015.10 1015.50 1015.92 1016.15 1016.52 1016.88 1017.15 1017.80 1018.26 1018.67 1018.89 1019.21 1019.61 1019.99 1020.39 1020.45 1020.41 1020.55 1020.48 1020.51 1020.67
1008.37 1007.94 1007.94 1008.08 1008.11 1008.50 1008.72 1008.77 1009.53 1011.08 1012.36 1013.04 1013.81 1014.03 1013.99 1014.19 1014.48 1014.17 1014.11 1014.74 1015.05 1015.38 1015.31 1014.87 1014.97 1015.17 1015.60 1016.17 1016.45 1016.88 1017.60 1018.22 1018.56 1018.71 1019.01 1019.47 1020.04 1020.33 1020.31 1020.52 1020.69 1020.74 1020.65 1020.67
1008.04 1007.43 1007.39 1007.03 1006.98 1007.70 1008.54 1009.59 1010.49 1011.95 1012.99 1013.67 1013.28 1013.71 1013.61 1013.38 1013.40 1013.83 1014.26 1014.81 1015.15 1015.77 1015.54 1015.55 1015.41 1015.19 1015.41 1016.07 1016.61 1016.90 1017.58 1018.17 1018.44 1018.77 1019.07 1019.46 1019.89 1020.19 1020.58 1020.72 1020.83 1020.94 1020.94 1020.78
1008.10 1007.29 1006.50 1006.25 1006.73 1007.29 1008.15 1009.94 1011.62 1013.11 1014.06 1013.85 1013.12 1013.84 1013.14 1013.28 1012.98 1013.17 1013.54 1014.18 1015.32 1015.87 1015.83 1015.81 1015.66 1015.70 1016.01 1015.90 1016.37 1017.02 1017.54 1018.20 1018.41 1018.66 1018.98 1019.33 1019.65 1019.95 1020.22 1020.48 1020.81 1020.97 1021.01 1021.00
1008.74 1007.61 1006.40 1005.85 1006.09 1006.75 1007.94 1008.74 1010.36 1011.86 1013.16 1013.62 1013.67 1013.70 1013.66 1013.51 1013.22 1013.18 1013.63 1014.74 1015.37 1016.10 1016.15 1015.93 1015.77 1015.78 1015.92 1016.14 1016.16 1016.87 1017.48 1018.03 1018.47 1018.77 1018.91 1019.20 1019.53 1019.93 1020.04 1020.11 1020.48 1020.69 1020.83 1020.84
1008.87 1007.93 1006.54 1005.87 1005.52 1005.98 1007.37 1008.34 1008.59 1010.57 1011.96 1012.89 1013.36 1013.84 1013.88 1014.13 1014.18 1014.17 1014.54 1015.10 1015.66 1015.91 1016.34 1016.16 1016.32 1016.02 1016.32 1016.63 1016.46 1016.54 1017.19 1017.95 1018.45 1018.88 1019.03 1019.26 1019.55 1019.70 1019.98 1020.04 1020.22 1020.41 1020.66 1020.65
1009.01 1008.74 1007.28 1006.30 1005.65 1006.01 1006.19 1007.15 1008.86 1010.15 1011.83 1012.69 1013.49 1013.60 1013.72 1014.31 1014.54 1014.78 1015.16 1015.48 1015.79 1016.00 1016.13 1016.08 1015.93 1015.68 1016.37 1016.48 1016.74 1017.11 1017.21 1017.90 1018.45 1018.88 1019.23 1019.33 1019.55 1019.70 1019.68 1019.86 1020.21 1020.28 1020.46 1020.57
1009.59 1009.66 1008.47 1007.47 1007.20 1007.11 1006.97 1007.41 1008.62 1009.84 1011.28 1012.06 1013.55 1014.10 1014.25 1014.50 1014.85 1015.10 1015.36 1015.69 1016.03 1016.19 1016.37 1016.42 1015.85 1016.04 1017.09 1017.05 1017.00 1017.41 1017.60 1018.16 1018.66 1018.91 1019.26 1019.36 1019.34 1019.67 1019.83 1019.79 1019.94 1020.01 1020.17 1020.39
1010.02 1010.72 1010.31 1009.13 1008.15 1007.81 1007.76 1008.07 1008.41 1009.86 1011.41 1012.44 1013.52 1014.53 1014.31 1014.46 1015.01 1015.15 1015.47 1015.65 1016.25 1016.60 1016.57 1016.65 1016.58 1016.30 1017.25 1017.08 1017.30 1018.01 1018.31 1018.15 1018.87 1019.04 1019.28 1019.41 1019.61 1019.60 1019.71 1019.82 1019.73 1019.77 1019.94 1020.07
1010.17 1011.43 1011.35 1010.31 1009.70 1008.87 1009.03 1008.93 1009.06 1009.52 1010.25 1012.09 1013.53 1014.78 1014.90 1015.00 1015.12 1015.21 1015.44 1015.78 1016.28 1016.36 1016.52 1016.98 1016.90 1015.98 1017.02 1017.51 1017.65 1017.91 1018.62 1018.94 1019.07 1019.21 1019.42 1019.71 1019.77 1019.60 1019.59 1019.53 1019.67 1019.75 1019.86 1020.03
1009.81 1012.33 1012.52 1012.12 1011.88 1011.28 1010.45 1009.58 1009.16 1009.81 1010.80 1012.00 1012.93 1014.12 1015.11 1015.17 1015.26 1015.63 1015.90 1016.24 1016.68 1016.77 1017.14 1017.38 1017.02 1017.03 1016.98 1017.32 1017.15 1017.42 1018.87 1019.03 1018.16 1018.89 1019.82 1019.98 1020.00 1019.79 1019.61 1019.47 1019.49 1019.65 1019.85 1020.10
1010.97 1012.52 1012.87 1012.61 1012.02 1011.34 1010.48 1009.76 1009.43 1009.83 1010.21 1011.10 1012.54 1013.18 1014.06 1014.85 1015.19 1015.69 1016.09 1016.50 1017.00 1017.22 1017.43 1017.67 1017.62 1017.67 1017.80 1018.00 1018.54 1019.09 1019.38 1018.46 1019.56 1020.09 1020.21 1020.48 1020.66 1020.28 1020.00 1019.90 1019.72 1019.72 1019.83 1020.06
1011.89 1012.98 1013.17 1013.06 1012.23 1011.32 1010.54 1009.90 1009.88 1009.84 1010.43 1011.33 1012.49 1013.58 1014.23 1015.01 1015.56 1015.83 1016.05 1016.55 1016.93 1017.18 1017.37 1017.68 1017.99 1018.26 1018.35 1018.45 1018.94 1019.59 1019.80 1020.15 1020.45 1020.91 1021.43 1021.31 1020.95 1020.84 1020.45 1020.05 1020.05 1020.04 1020.09 1020.16
1012.66 1013.39 1013.94 1014.18 1012.96 1011.97 1011.79 1010.88 1010.51 1010.45 1010.58 1011.06 1012.60 1012.78 1014.13 1015.10 1015.53 1015.80 1015.96 1016.47 1017.23 1017.68 1017.80 1018.11 1018.52 1018.74 1018.75 1019.15 1019.68 1019.95 1020.42 1020.91 1021.48 1021.83 1021.88 1021.51 1021.29 1021.52 1021.01 1020.30 1020.26 1020.53 1020.61 1020.50
1013.11 1014.04 1014.60 1014.99 1013.75 1013.25 1012.20 1011.00 1010.81 1011.42 1011.75 1012.03 1012.26 1013.08 1013.98 1014.49 1015.50 1016.04 1016.27 1016.29 1017.15 1018.04 1018.69 1018.85 1019.33 1019.60 1019.91 1020.13 1020.66 1021.01 1021.09 1021.36 1021.70 1022.02 1021.90 1021.64 1021.82 1021.52 1021.21 1021.24 1020.96 1020.89 1020.86 1020.93
1013.50 1014.58 1015.82 1016.02 1015.28 1014.05 1012.37 1011.66 1012.04 1012.65 1012.54 1012.52 1012.96 1013.92 1014.54 1015.04 1015.88 1016.69 1017.11 1017.34 1017.17 1018.46 1019.26 1019.83 1020.08 1020.45 1020.85 1021.15 1021.52 1021.78 1022.00 1022.34 1022.41 1022.71 1022.79 1022.70 1022.65 1022.39 1022.01 1021.55 1021.31 1021.64 1021.51 1021.57
1014.65 1015.09 1016.12 1016.74 1015.99 1014.50 1012.92 1011.66 1012.19 1012.95 1013.34 1013.42 1013.65 1014.01 1014.65 1015.33 1016.34 1017.17 1017.49 1017.91 1018.62 1018.98 1019.64 1020.31 1020.72 1021.20 1021.65 1022.20 1022.07 1022.35 1022.80 1022.86 1023.00 1023.29 1023.29 1023.12 1023.21 1023.24 1022.73 1022.80 1022.61 1022.34 1022.09 1022.06
1016.29 1017.02 1017.31 1017.19 1016.22 1014.63 1013.27 1012.67 1012.64 1013.61 1014.08 1013.32 1013.65 1014.62 1015.34 1016.09 1016.58 1017.46 1017.99 1018.51 1018.56 1019.38 1020.28 1020.94 1021.46 1022.26 1022.80 1022.99 1022.89 1023.43 1023.63 1023.99 1024.10 1024.09 1023.90 1023.62 1023.62 1023.41 1022.98 1022.88 1022.62 1022.47 1022.07 1021.71
1017.15 1017.56 1017.95 1017.88 1016.80 1015.38 1013.89 1013.35 1013.76 1014.13 1014.11 1014.42 1014.81 1014.97 1015.84 1016.75 1017.34 1018.29 1018.85 1019.45 1019.66 1020.24 1021.11 1021.59 1022.22 1023.03 1023.48 1023.39 1023.41 1024.09 1024.35 1024.55 1024.48 1024.41 1024.37 1024.11 1023.93 1023.90 1023.83 1023.56 1023.45 1023.11 1022.98 1022.83
1017.70 1017.50 1017.46 1017.88 1017.09 1015.69 1014.89 1014.32 1014.14 1014.08 1014.24 1014.82 1015.37 1015.93 1016.21 1017.03 1018.02 1018.80 1019.45 1020.01 1020.61 1021.12 1021.70 1022.26 1022.82 1023.58 1023.92 1024.02 1024.06 1024.50 1024.91 1024.74 1024.67 1024.65 1024.86 1024.65 1024.47 1024.38 1024.42 1024.32 1024.37 1024.22 1024.05 1023.85
1017.43 1017.16 1017.56 1017.62 1016.81 1016.20 1015.35 1014.78 1014.49 1014.64 1014.67 1015.15 1015.35 1016.19 1017.11 1017.71 1018.54 1019.45 1020.12 1020.64 1020.97 1021.69 1022.11 1022.59 1023.06 1023.75 1024.28 1024.48 1024.59 1024.87 1025.02 1024.98 1025.06 1025.38 1025.54 1025.48 1025.46 1025.26 1025.24 1024.97 1024.79 1024.66 1024.62 1024.47
1017.73 1017.35 1017.83 1017.91 1017.22 1016.50 1015.79 1015.45 1015.25 1015.28 1015.46 1016.02 1016.69 1016.82 1017.49 1017.91 1018.73 1018.97 1019.70 1020.33 1021.17 1021.79 1022.47 1022.99 1023.61 1024.33 1024.80 1025.03 1025.20 1025.24 1025.39 1025.52 1025.88 1026.07 1026.06 1026.02 1025.94 1026.13 1026.11 1025.79 1025.63 1025.36 1025.25 1025.19
1017.90 1017.49 1017.63 1017.55 1016.98 1017.02 1016.73 1016.07 1015.62 1015.52 1015.89 1016.33 1016.78 1017.57 1017.87 1018.10 1018.81 1019.43 1020.24 1020.77 1021.37 1022.06 1022.75 1023.50 1023.93 1024.47 1024.95 1025.32 1025.66 1025.71 1025.83 1026.02 1026.39 1026.71 1026.90 1027.02 1027.00 1026.85 1026.58 1026.34 1025.94 1025.48 1025.26 1025.03
Wind_Speed
3 4 5 6 5 4 1 2 3 4 4 4 6 4 9 3 12 10 7 5 14 16 12 12 11 11 10 7 7 8 8 7 6 2 2 2 2 1 1 2 3 4 4 5
6 3 6 4 7 4 3 2 4 4 3 4 3 4 1 2 4 15 15 2 9 13 15 12 12 13 11 12 9 8 7 8 5 3 2 2 2 1 1 1 1 4 4 4
6 4 6 4 1 2 3 4 5 6 8 9 12 1 4 2 5 12 11 6 4 12 15 15 14 14 10 11 11 11 10 9 6 5 4 3 3 3 1 1 2 2 4 3
4 4 3 4 4 7 3 8 9 13 4 5 1 1 5 4 5 16 21 11 2 5 12 15 15 13 11 13 10 10 9 8 6 7 5 5 4 4 3 3 2 3 4 4
7 2 3 5 8 7 9 5 7 6 5 6 0 5 5 11 10 16 17 16 7 4 11 18 19 17 14 12 12 10 8 7 6 7 7 5 3 2 2 2 4 2 3 4
7 4 5 9 5 8 8 9 11 6 3 2 8 6 5 13 14 17 17 15 9 5 5 8 9 14 13 9 8 10 9 7 7 6 7 7 7 6 4 3 3 2 2 1
6 4 4 5 3 2 6 6 4 4 2 6 5 5 2 9 11 17 21 22 14 2 2 3 7 11 9 12 11 9 8 7 7 7 7 7 7 7 6 5 4 4 2 2
3 7 5 4 8 9 10 10 8 6 6 3 1 4 3 5 8 9 8 14 10 4 1 3 3 6 10 12 13 12 8 7 6 6 7 6 6 4 4 5 4 4 4 4
4 6 3 4 4 8 5 4 6 8 1 4 4 3 5 9 11 11 12 12 9 5 5 6 6 2 7 6 11 14 10 7 6 5 4 5 5 6 5 5 4 4 3 3
2 3 2 6 1 3 9 7 3 4 6 3 1 3 5 9 11 12 10 9 7 5 3 7 6 1 2 6 5 7 7 7 6 6 3 2 4 4 4 5 5 5 3 3
2 2 7 3 4 1 4 2 6 7 3 6 3 4 3 5 10 11 10 10 6 5 6 4 5 8 2 5 7 7 8 9 7 6 3 2 4 4 4 5 6 6 4 6
2 4 3 5 6 5 1 1 3 7 3 4 5 1 9 11 7 9 9 9 8 4 5 4 3 6 5 7 10 9 6 10 6 5 4 3 4 5 5 5 5 4 5 6
2 3 4 8 9 8 7 5 3 4 3 3 7 2 1 5 7 5 6 8 7 7 7 4 5 5 4 5 10 10 5 2 6 5 5 5 3 3 6 6 6 5 5 6
10 3 5 6 5 4 7 5 2 4 4 6 3 9 8 8 7 6 7 7 7 8 6 3 3 3 6 5 8 10 5 4 5 7 5 5 5 2 2 2 2 2 3 4
5 5 4 5 5 2 4 5 6 6 5 7 12 19 16 13 11 9 9 9 9 8 9 7 5 4 5 8 8 6 5 7 4 3 3 4 4 4 1 3 4 5 6 1
3 2 1 1 5 8 5 9 8 5 10 9 18 9 8 12 11 11 12 11 9 9 10 10 9 9 8 8 8 7 7 5 5 5 4 2 5 3 2 4 5 6 7 7
3 4 3 1 3 5 7 9 7 3 5 18 11 10 18 16 14 13 13 13 12 10 10 10 9 9 10 11 9 10 9 8 7 6 5 6 5 3 3 6 7 7 5 7
5 4 3 1 5 4 8 6 3 6 7 2 8 20 18 17 12 7 10 16 15 13 11 10 9 9 8 9 10 9 9 10 9 9 9 9 7 7 7 6 8 7 7 9
4 5 4 5 3 3 3 3 5 5 5 3 16 16 14 15 12 8 6 7 16 12 9 8 8 10 10 9 9 10 10 9 10 9 8 8 7 6 8 9 9 5 4 4
7 8 6 2 4 7 6 5 4 3 4 2 14 16 18 18 10 6 12 14 12 13 11 11 10 9 10 6 8 11 9 10 10 9 7 7 8 6 7 5 4 3 2 1
4 4 5 2 2 4 2 6 6 4 8 9 15 15 14 11 4 8 13 12 15 13 11 8 9 9 6 5 9 9 8 8 5 6 7 8 8 7 7 6 5 6 6 7
4 5 2 3 2 2 4 3 2 4 1 2 4 8 10 8 14 11 11 13 14 13 10 10 11 8 5 6 10 7 8 4 5 6 7 8 8 7 7 7 7 7 7 6
2 5 6 6 7 5 5 1 1 4 4 4 6 5 13 15 12 11 10 8 8 11 9 8 11 9 6 6 7 8 3 6 6 7 8 8 7 8 8 7 7 5 6 5
3 2 4 4 3 6 6 4 4 3 6 7 11 14 12 14 12 9 8 8 9 7 8 8 10 8 6 6 7 6 6 6 7 7 7 6 7 7 7 5 6 6 6 7
4 3 3 1 2 3 6 5 3 7 9 11 8 11 12 15 14 15 12 11 8 9 8 7 9 7 7 6 6 5 6 6 6 6 6 7 5 6 5 5 4 4 2 2
1 5 4 6 5 4 2 6 0 8 8 11 12 7 7 13 12 10 10 10 10 11 8 7 7 8 7 7 6 5 4 6 5 4 3 3 3 3 4 4 4 3 6 9
Wind_Direction
155 101 188 193 162 147 226 230 288 51 144 116 139 139 182 197 173 190 181 87 168 175 172 171 172 170 158 156 159 155 155 155 142 123 131 133 176 174 134 220 160 212 157 134
32 208 215 130 152 159 197 312 72 51 175 117 114 122 142 174 173 168 217 113 182 168 164 170 178 177 169 169 170 152 171 167 172 137 152 131 146 130 150 187 191 202 179 157
154 220 121 133 166 169 214 201 174 141 117 63 121 59 172 240 151 177 209 208 336 169 165 178 178 184 168 175 176 165 173 179 166 164 113 73 65 67 58 205 198 220 194 178
218 243 187 180 218 149 263 200 201 151 147 161 255 142 247 186 181 178 194 205 186 190 181 174 182 184 182 187 186 167 162 170 166 163 148 154 172 156 203 177 172 184 178 201
244 200 171 205 210 155 232 233 224 127 100 109 354 91 276 157 197 193 186 205 239 350 188 183 185 186 188 175 182 175 155 168 160 161 159 160 161 171 122 136 162 174 178 200
231 222 183 211 231 164 118 69 48 53 65 16 184 173 212 189 189 189 187 201 249 352 106 202 213 191 177 169 175 175 159 172 166 162 160 175 173 167 149 166 175 182 202 213
321 255 238 168 188 140 110 83 38 45 15 223 163 131 323 200 175 190 181 197 197 257 46 24 192 198 192 172 172 176 164 178 181 165 166 175 180 174 180 173 172 172 167 198
187 329 186 174 176 175 184 160 151 167 189 203 175 218 335 60 92 93 152 191 166 219 117 322 259 209 192 198 175 178 174 173 180 176 169 182 185 182 194 176 167 183 188 199
154 270 307 252 184 139 193 161 194 108 112 109 171 135 120 102 94 99 103 121 151 179 192 179 262 270 214 216 191 182 167 158 151 177 168 185 184 184 204 198 177 176 193 204
306 280 277 285 187 84 155 171 98 26 150 167 241 205 161 154 133 130 114 127 132 134 194 237 184 128 217 173 151 149 145 135 127 118 116 172 218 200 184 171 196 200 200 212
78 78 292 4 30 329 349 104 52 109 113 144 152 240 338 153 135 129 133 137 143 155 152 201 149 145 41 84 86 109 116 119 108 110 107 173 237 217 213 196 187 211 204 207
56 130 286 240 302 304 279 60 122 127 177 73 115 315 330 132 144 129 129 117 127 141 129 153 132 118 159 117 104 98 98 111 102 82 68 26 310 260 216 236 229 197 203 204
112 12 8 349 356 356 33 334 77 83 75 139 129 206 48 119 137 128 133 126 120 105 76 49 98 168 131 142 126 112 114 142 131 90 55 32 22 315 245 212 229 211 194 208
92 90 154 161 187 218 305 300 353 126 113 154 173 139 183 173 147 132 130 125 119 115 114 100 63 100 129 115 102 83 106 130 22 36 43 27 7 25 355 125 112 220 207 208
98 142 174 219 233 273 264 312 310 189 174 147 175 172 176 168 157 156 137 124 122 110 107 110 93 72 95 107 97 94 79 74 89 99 48 30 1 356 343 67 78 61 58 358
13 149 186 202 265 13 337 353 357 61 108 75 139 146 157 158 146 156 148 138 128 114 101 92 91 93 86 98 102 103 96 76 90 71 77 56 29 6 33 63 53 57 56 44
84 120 92 112 296 26 6 340 327 321 80 138 156 171 159 157 164 166 154 139 131 111 94 78 60 61 76 78 83 87 89 93 83 74 46 46 47 21 46 73 62 51 42 53
120 84 71 110 34 111 250 326 352 77 64 55 125 147 156 154 155 148 157 139 129 120 114 98 89 74 64 79 77 87 74 69 67 55 41 34 21 24 29 50 72 54 41 32
66 108 80 115 146 288 334 333 10 332 327 126 136 141 144 140 136 136 131 132 127 123 115 104 95 87 83 79 85 80 69 66 59 49 43 29 14 21 28 25 34 25 56 48
49 72 106 93 138 201 232 325 29 229 292 173 149 150 149 147 151 174 138 131 118 118 120 115 99 93 88 60 72 71 59 55 43 32 32 33 20 16 33 22 20 18 42 183
27 13 126 139 199 299 307 303 318 177 245 169 167 157 155 161 138 133 137 138 132 132 127 110 101 103 102 94 86 71 62 50 30 26 26 29 22 8 19 3 9 4 8 23
146 122 172 69 90 246 5 335 284 239 22 185 163 151 119 130 128 129 132 138 138 133 121 113 104 99 93 88 88 75 61 25 37 37 34 27 22 22 14 22 5 10 14 19
24 175 168 161 214 256 282 258 265 193 146 155 114 130 133 135 141 142 137 127 120 126 122 117 114 105 79 78 87 83 50 47 42 43 29 19 16 17 11 20 15 21 16 21
309 83 101 82 342 342 346 358 61 57 93 106 120 134 140 141 138 127 125 125 128 133 123 119 108 99 83 75 77 91 69 50 49 44 33 22 22 14 11 15 16 22 25 14
207 41 137 332 292 306 8 14 107 100 101 111 121 134 148 146 153 158 160 147 133 126 129 128 125 122 125 110 93 81 75 71 64 51 29 16 20 19 8 13 11 9 356 0
221 166 147 208 216 152 286 306 90 141 150 149 140 134 145 155 150 149 154 154 148 147 145 134 135 133 139 128 123 107 98 93 91 71 49 40 40 5 359 360 344 351 353 345